Weather History for Defiance, OH

Change the Weather History Date:

Monday, August 5, 2013

  Actual Average Record
Temperature  
Mean Temperature 63 °F -  
Max Temperature 75 °F 82 °F 100 °F (1947)
Min Temperature 51 °F 58 °F 47 °F (1972)
Degree Days  
Heating Degree Days 2    
Growing Degree Days 13 (Base 50)    
Moisture  
Dew Point 55 °F    
Average Humidity 76    
Maximum Humidity 94    
Minimum Humidity 49    
Precipitation  
Precipitation 0.00 in - - ()
Sea Level Pressure  
Sea Level Pressure 30.08 in    
Wind  
Wind Speed 1 mph (South)    
Max Wind Speed 7 mph    
Max Gust Speed -    
Visibility 9 miles    
Events      
Averages and records for this station are not official NWS values.
T = Trace of Precipitation, MM = Missing Value Source: NWS Daily Summary

Daily Weather History Graph

Daily Weather History Graph

Search for Another Location

Airport:

Trip Planner

Search our weather history database for the weather conditions in past years. The results will help you decide how hot, cold, wet, or windy it might be!

Date:

Astronomy

Aug. 05, 2013 Rise Set
Actual Time 6:37 AM EDT 8:49 PM EDT
Civil Twilight 6:06 AM EDT 9:20 PM EDT
Nautical Twilight 5:28 AM EDT 9:57 PM EDT
Astronomical Twilight 4:46 AM EDT 10:39 PM EDT
Moon 5:31 AM EDT (8/5) 7:49 PM EDT (8/5)
Length of Visible Light 15h 13m
Length of Day
14h 12m
Waning Crescent, 1% of the Moon is Illuminated
Aug 5
Waning Crescent
Aug 6
New
Aug 14
First Quarter
Aug 20
Full
Aug 28
Last Quarter

Hourly Weather History & Observations

Time (EDT) Temp. Dew Point Humidity Pressure Visibility Wind Dir Wind Speed Gust Speed Precip Events Conditions
12:53 AM 55.9 °F 53.1 °F 90% 30.12 in 10.0 mi Calm Calm - N/A   Clear
1:53 AM 55.9 °F 53.1 °F 90% 30.13 in 10.0 mi Calm Calm - N/A   Clear
2:53 AM 54.0 °F 51.1 °F 90% 30.12 in 10.0 mi Calm Calm - N/A   Clear
3:16 AM 53.6 °F 51.8 °F 94% 30.12 in 1.8 mi Calm Calm - N/A   Clear
3:23 AM 53.6 °F 51.8 °F 94% 30.13 in 2.5 mi Calm Calm - N/A   Clear
3:31 AM 53.6 °F 51.8 °F 94% 30.13 in 6.0 mi Calm Calm - N/A   Clear
3:34 AM 53.6 °F 51.8 °F 94% 30.13 in 1.8 mi Calm Calm - N/A   Clear
3:43 AM 53.6 °F 51.8 °F 94% 30.12 in 4.0 mi Calm Calm - N/A   Clear
3:53 AM 53.1 °F 51.1 °F 93% 30.12 in 10.0 mi Calm Calm - N/A   Clear
4:53 AM 54.0 °F 51.1 °F 90% 30.12 in 10.0 mi Calm Calm - N/A   Clear
5:53 AM 52.0 °F 48.9 °F 89% 30.12 in 10.0 mi Calm Calm - N/A   Clear
6:53 AM 51.1 °F 48.9 °F 92% 30.12 in 10.0 mi Calm Calm - N/A   Clear
7:53 AM 55.9 °F 53.1 °F 90% 30.12 in 10.0 mi Calm Calm - N/A   Clear
8:53 AM 62.1 °F 57.9 °F 86% 30.12 in 10.0 mi Calm Calm - N/A   Clear
9:53 AM 66.9 °F 57.0 °F 70% 30.11 in 10.0 mi Calm Calm - N/A   Clear
10:53 AM 70.0 °F 55.9 °F 61% 30.11 in 10.0 mi Calm Calm - N/A   Clear
11:53 AM 73.0 °F 53.1 °F 49% 30.10 in 10.0 mi SW 4.6 mph - N/A   Clear
12:53 PM 73.0 °F 53.1 °F 49% 30.08 in 10.0 mi Calm Calm - N/A   Clear
1:53 PM 73.9 °F 54.0 °F 50% 30.05 in 10.0 mi Variable 6.9 mph - N/A   Clear
2:53 PM 73.9 °F 54.0 °F 50% 30.05 in 10.0 mi SSW 4.6 mph - N/A   Clear
3:53 PM 75.0 °F 55.0 °F 50% 30.04 in 10.0 mi SW 6.9 mph - N/A   Partly Cloudy
4:53 PM 73.9 °F 57.0 °F 55% 30.03 in 10.0 mi South 3.5 mph - N/A   Mostly Cloudy
5:53 PM 73.0 °F 59.0 °F 61% 30.02 in 10.0 mi South 4.6 mph - N/A   Overcast
6:53 PM 72.0 °F 60.1 °F 66% 30.01 in 10.0 mi Calm Calm - N/A   Overcast
7:53 PM 72.0 °F 60.1 °F 66% 30.00 in 10.0 mi Calm Calm - N/A   Mostly Cloudy
8:53 PM 70.0 °F 60.1 °F 71% 29.98 in 10.0 mi SE 3.5 mph - N/A   Overcast
9:53 PM 70.0 °F 57.9 °F 65% 29.98 in 10.0 mi SSE 4.6 mph - N/A   Mostly Cloudy
10:53 PM 68.0 °F 59.0 °F 73% 29.97 in 10.0 mi Calm Calm - N/A   Overcast
11:53 PM 66.0 °F 60.1 °F 81% 29.98 in 10.0 mi South 3.5 mph - N/A   Mostly Cloudy